Weather in Smirkino

Russia / Nizhny Novgorod Oblast'     56°55′43″N   43°34′22″E
temp.,
°C
wind,
m/s
gust,
m/s
humid.,
%
clouds,
%
prec.,
mm/h
press.,
hPa
HPBL,
m
14 august, sun
sun1400:00+16ese3371100 0.0 102241
03:00+15sse2276100 0.0 102223
06:00+17sse2376100 0.0 102270
09:00+22ssw235699 0.0 1022416
12:00+26sw224426 0.0 10221433
15:00+27wsw324159 0.0 10211955
18:00+25nnw115492 0.0 102134
21:00+19ene227320 0.0 102111
15 august, mon
mon1500:00+19sse117095 0.0 102211
03:00+19sse116796 0.0 102211
06:00+19se117217 0.0 102313
09:00+23s215510 0.0 1023457
12:00+26sw11463 0.0 10231412
15:00+26wnw2144100 0.0 10231669
18:00+22e2365100 0.0 102352
21:00+21e246897 0.0 102370
16 august, tue
tue1600:00+20ese2367100 0.0 102461
03:00+19ese2470100 0.0 102590
06:00+19ese2575100 0.0 1025158
09:00+23ese3455100 0.0 1026497
12:00+26ese3344100 0.0 10251650
15:00+27ese3338100 0.0 10241985
18:00+24ese35505 0.0 1023194
21:00+18ese346364 0.0 102460
17 august, wed
wed1700:00+16ese347092 0.0 102466
03:00+15ese347674 0.0 102449
06:00+16e357396 0.0 1024104
09:00+22ese345257 0.0 1023481
12:00+26ese334110 0.0 10221431
15:00+27ese22375 0.0 10211949
18:00+25se11500 0.0 102118
21:00+19e22690 0.0 102117
18 august, thu
thu1800:00+17ese33760 0.0 102142
03:00+16ese34810 0.0 102153
06:00+17e35780 0.0 102298
09:00+23e35510 0.0 1021545
12:00+26e44390 0.0 10201735
15:00+27e45350 0.0 10202093
18:00+25e36490 0.0 1019167
21:00+19e36660 0.0 102092